| time (UTC) | temp C | wind direction | speed KPH | gust KPH | rain 1hr cm | rain 24hr cm | rain mn cm | humidity % | barometer mb |
| 20260510011027 | 37 | 300 | 4.8 | 17.7 | 0.00 | 0.00 | 0.00 | 10 | 1004.6 |
| 20260510010523 | 37 | 313 | 6.4 | 17.7 | 0.00 | 0.00 | 0.00 | 10 | 1004.6 |
| 20260510010049 | 37 | 272 | 8.0 | 17.7 | 0.00 | 0.00 | 0.00 | 10 | 1004.6 |
| 20260510005524 | 37 | 275 | 4.8 | 16.1 | 0.00 | 0.00 | 0.00 | 10 | 1004.6 |
| 20260510005025 | 37 | 0 | 8.0 | 17.7 | 0.00 | 0.00 | 0.00 | 10 | 1004.7 |
| 20260510004539 | 37 | 309 | 6.4 | 17.7 | 0.00 | 0.00 | 0.00 | 10 | 1004.7 |
| 20260510004027 | 37 | 324 | 4.8 | 17.7 | 0.00 | 0.00 | 0.00 | 9 | 1004.7 |
| 20260510003524 | 37 | 273 | 3.2 | 17.7 | 0.00 | 0.00 | 0.00 | 9 | 1004.6 |
| 20260510003041 | 37 | 297 | 6.4 | 20.9 | 0.00 | 0.00 | 0.00 | 9 | 1004.7 |
| 20260510002523 | 38 | 295 | 4.8 | 20.9 | 0.00 | 0.00 | 0.00 | 9 | 1004.7 |
| 20260510002027 | 37 | 283 | 8.0 | 17.7 | 0.00 | 0.00 | 0.00 | 9 | 1004.8 |
| 20260510001540 | 37 | 258 | 1.6 | 19.3 | 0.00 | 0.00 | 0.00 | 9 | 1004.8 |
| 20260510001024 | 38 | 304 | 6.4 | 19.3 | 0.00 | 0.00 | 0.00 | 8 | 1004.7 |
| 20260510000524 | 38 | 269 | 6.4 | 17.7 | 0.00 | 0.00 | 0.00 | 9 | 1004.8 |
| 20260510000042 | 38 | 275 | 6.4 | 20.9 | 0.00 | 0.00 | 0.00 | 9 | 1004.7 |
| 20260509235522 | 38 | 238 | 4.8 | 20.9 | 0.00 | 0.00 | 0.00 | 9 | 1004.8 |
| 20260509235022 | 38 | 207 | 6.4 | 16.1 | 0.00 | 0.00 | 0.00 | 9 | 1004.8 |
| 20260509234538 | 38 | 252 | 4.8 | 25.7 | 0.00 | 0.00 | 0.00 | 9 | 1004.8 |
| 20260509234029 | 38 | 304 | 8.0 | 25.7 | 0.00 | 0.00 | 0.00 | 9 | 1004.9 |
| 20260509233525 | 38 | 298 | 4.8 | 16.1 | 0.00 | 0.00 | 0.00 | 10 | 1005.0 |
| 20260509233043 | 38 | 336 | 3.2 | 16.1 | 0.00 | 0.00 | 0.00 | 9 | 1005.0 |
| 20260509232524 | 38 | 283 | 3.2 | 12.9 | 0.00 | 0.00 | 0.00 | 10 | 1005.1 |
| 20260509232024 | 38 | 337 | 3.2 | 17.7 | 0.00 | 0.00 | 0.00 | 9 | 1005.1 |
| 20260509231544 | 38 | 209 | 6.4 | 17.7 | 0.00 | 0.00 | 0.00 | 9 | 1005.1 |
| 20260509231024 | 38 | 273 | 6.4 | 17.7 | 0.00 | 0.00 | 0.00 | 9 | 1005.1 |
| 20260509230522 | 38 | 244 | 4.8 | 16.1 | 0.00 | 0.00 | 0.00 | 9 | 1005.1 |
| 20260509230050 | 38 | 298 | 6.4 | 16.1 | 0.00 | 0.00 | 0.00 | 10 | 1005.2 |
| 20260509225526 | 38 | 319 | 4.8 | 14.5 | 0.00 | 0.00 | 0.00 | 11 | 1005.3 |
| 20260509225025 | 38 | 327 | 4.8 | 14.5 | 0.00 | 0.00 | 0.00 | 11 | 1005.2 |
| 20260509224535 | 38 | 340 | 4.8 | 14.5 | 0.00 | 0.00 | 0.00 | 11 | 1005.3 |
| 20260509224025 | 38 | 299 | 4.8 | 20.9 | 0.00 | 0.00 | 0.00 | 10 | 1005.4 |
| 20260509223524 | 38 | 352 | 9.7 | 20.9 | 0.00 | 0.00 | 0.00 | 10 | 1005.5 |
| 20260509223039 | 38 | 309 | 6.4 | 16.1 | 0.00 | 0.00 | 0.00 | 10 | 1005.5 |
| 20260509222523 | 38 | 338 | 3.2 | 14.5 | 0.00 | 0.00 | 0.00 | 10 | 1005.6 |
| 20260509222023 | 38 | 0 | 4.8 | 14.5 | 0.00 | 0.00 | 0.00 | 10 | 1005.7 |
| 20260509221540 | 38 | 324 | 6.4 | 14.5 | 0.00 | 0.00 | 0.00 | 10 | 1005.9 |
| 20260509221024 | 38 | 317 | 3.2 | 16.1 | 0.00 | 0.00 | 0.00 | 10 | 1005.9 |
| 20260509220525 | 38 | 325 | 6.4 | 16.1 | 0.00 | 0.00 | 0.00 | 10 | 1006.1 |
| 20260509220039 | 38 | 278 | 3.2 | 16.1 | 0.00 | 0.00 | 0.00 | 10 | 1006.0 |
| 20260509215526 | 38 | 333 | 4.8 | 16.1 | 0.00 | 0.00 | 0.00 | 10 | 1006.1 |
| 20260509215025 | 38 | 288 | 4.8 | 17.7 | 0.00 | 0.00 | 0.00 | 10 | 1006.2 |
| 20260509214537 | 38 | 316 | 6.4 | 17.7 | 0.00 | 0.00 | 0.00 | 10 | 1006.2 |
| 20260509214024 | 38 | 322 | 4.8 | 17.7 | 0.00 | 0.00 | 0.00 | 10 | 1006.2 |
| 20260509213524 | 38 | 0 | 1.6 | 17.7 | 0.00 | 0.00 | 0.00 | 10 | 1006.3 |
| 20260509213058 | 38 | 334 | 6.4 | 22.5 | 0.00 | 0.00 | 0.00 | 10 | 1006.4 |
| 20260509212524 | 38 | 331 | 4.8 | 22.5 | 0.00 | 0.00 | 0.00 | 11 | 1006.4 |
| 20260509212024 | 38 | 264 | 6.4 | 17.7 | 0.00 | 0.00 | 0.00 | 10 | 1006.4 |
| 20260509211606 | 38 | 311 | 4.8 | 14.5 | 0.00 | 0.00 | 0.00 | 10 | 1006.5 |
| 20260509211024 | 38 | 277 | 4.8 | 20.9 | 0.00 | 0.00 | 0.00 | 11 | 1006.5 |
| 20260509210524 | 38 | 348 | 6.4 | 20.9 | 0.00 | 0.00 | 0.00 | 11 | 1006.5 |
| 20260509210040 | 38 | 297 | 3.2 | 14.5 | 0.00 | 0.00 | 0.00 | 10 | 1006.6 |
| 20260509205525 | 37 | 247 | 3.2 | 14.5 | 0.00 | 0.00 | 0.00 | 10 | 1006.8 |
| 20260509205023 | 37 | 304 | 6.4 | 17.7 | 0.00 | 0.00 | 0.00 | 11 | 1007.0 |
| 20260509204551 | 37 | 250 | 6.4 | 17.7 | 0.00 | 0.00 | 0.00 | 11 | 1007.1 |
| 20260509204028 | 37 | 316 | 6.4 | 17.7 | 0.00 | 0.00 | 0.00 | 11 | 1007.2 |
| 20260509203524 | 37 | 242 | 3.2 | 16.1 | 0.00 | 0.00 | 0.00 | 11 | 1007.1 |
| 20260509203052 | 37 | 0 | 6.4 | 17.7 | 0.00 | 0.00 | 0.00 | 12 | 1007.3 |
| 20260509202524 | 37 | 350 | 1.6 | 17.7 | 0.00 | 0.00 | 0.00 | 12 | 1007.4 |
| 20260509202025 | 37 | 287 | 6.4 | 17.7 | 0.00 | 0.00 | 0.00 | 11 | 1007.5 |
| 20260509201544 | 37 | 318 | 6.4 | 16.1 | 0.00 | 0.00 | 0.00 | 11 | 1007.5 |
| 20260509201024 | 37 | 298 | 4.8 | 14.5 | 0.00 | 0.00 | 0.00 | 12 | 1007.6 |
| 20260509200526 | 36 | 299 | 3.2 | 14.5 | 0.00 | 0.00 | 0.00 | 12 | 1007.7 |
| 20260509200040 | 36 | 327 | 4.8 | 14.5 | 0.00 | 0.00 | 0.00 | 12 | 1007.8 |
| 20260509195523 | 36 | 271 | 4.8 | 14.5 | 0.00 | 0.00 | 0.00 | 12 | 1007.8 |
| 20260509195024 | 36 | 298 | 1.6 | 14.5 | 0.00 | 0.00 | 0.00 | 13 | 1007.8 |
| 20260509194542 | 36 | 302 | 4.8 | 16.1 | 0.00 | 0.00 | 0.00 | 12 | 1008.0 |
| 20260509194026 | 36 | 309 | 6.4 | 16.1 | 0.00 | 0.00 | 0.00 | 13 | 1008.0 |
| 20260509193525 | 36 | 286 | 4.8 | 16.1 | 0.00 | 0.00 | 0.00 | 13 | 1008.0 |
| 20260509193039 | 36 | 316 | 4.8 | 16.1 | 0.00 | 0.00 | 0.00 | 13 | 1008.1 |
| 20260509192523 | 36 | 277 | 0.0 | 14.5 | 0.00 | 0.00 | 0.00 | 13 | 1008.2 |
| 20260509192025 | 36 | 331 | 4.8 | 14.5 | 0.00 | 0.00 | 0.00 | 13 | 1008.2 |
| 20260509191539 | 36 | 204 | 1.6 | 12.9 | 0.00 | 0.00 | 0.00 | 13 | 1008.2 |
| 20260509191030 | 36 | 255 | 3.2 | 12.9 | 0.00 | 0.00 | 0.00 | 13 | 1008.3 |
| 20260509190524 | 35 | 14 | 3.2 | 16.1 | 0.00 | 0.00 | 0.00 | 13 | 1008.5 |
| 20260509190048 | 35 | 327 | 4.8 | 16.1 | 0.00 | 0.00 | 0.00 | 13 | 1008.4 |
| 20260509185524 | 35 | 342 | 3.2 | 16.1 | 0.00 | 0.00 | 0.00 | 13 | 1008.5 |
| 20260509185025 | 35 | 9 | 4.8 | 12.9 | 0.00 | 0.00 | 0.00 | 14 | 1008.6 |
| 20260509184540 | 35 | 259 | 1.6 | 9.7 | 0.00 | 0.00 | 0.00 | 14 | 1008.7 |
| 20260509184024 | 35 | 348 | 1.6 | 11.3 | 0.00 | 0.00 | 0.00 | 13 | 1008.7 |
| 20260509183526 | 35 | 303 | 3.2 | 11.3 | 0.00 | 0.00 | 0.00 | 13 | 1008.8 |
| 20260509183041 | 35 | 333 | 1.6 | 12.9 | 0.00 | 0.00 | 0.00 | 13 | 1008.8 |
| 20260509182524 | 35 | 254 | 3.2 | 14.5 | 0.00 | 0.00 | 0.00 | 13 | 1008.9 |
| 20260509182026 | 35 | 292 | 4.8 | 14.5 | 0.00 | 0.00 | 0.00 | 13 | 1008.9 |
| 20260509181539 | 35 | 325 | 3.2 | 8.0 | 0.00 | 0.00 | 0.00 | 14 | 1009.0 |
| 20260509181024 | 35 | 42 | 1.6 | 11.3 | 0.00 | 0.00 | 0.00 | 14 | 1009.2 |
| 20260509180524 | 34 | 252 | 1.6 | 11.3 | 0.00 | 0.00 | 0.00 | 15 | 1009.2 |
| 20260509180039 | 33 | 340 | 3.2 | 9.7 | 0.00 | 0.00 | 0.00 | 14 | 1009.2 |
| 20260509175524 | 34 | 0 | 3.2 | 12.9 | 0.00 | 0.00 | 0.00 | 15 | 1009.2 |
| 20260509175024 | 35 | 257 | 1.6 | 14.5 | 0.00 | 0.00 | 0.00 | 14 | 1009.3 |
| 20260509174550 | 35 | 256 | 3.2 | 14.5 | 0.00 | 0.00 | 0.00 | 14 | 1009.4 |
| 20260509174028 | 35 | 213 | 1.6 | 6.4 | 0.00 | 0.00 | 0.00 | 15 | 1009.4 |
| 20260509173523 | 34 | 114 | 1.6 | 8.0 | 0.00 | 0.00 | 0.00 | 15 | 1009.5 |
| 20260509173039 | 34 | 140 | 1.6 | 8.0 | 0.00 | 0.00 | 0.00 | 15 | 1009.5 |
| 20260509172525 | 34 | 151 | 1.6 | 11.3 | 0.00 | 0.00 | 0.00 | 15 | 1009.6 |
| 20260509172024 | 33 | 0 | 1.6 | 11.3 | 0.00 | 0.00 | 0.00 | 16 | 1009.6 |
| 20260509171539 | 33 | 84 | 3.2 | 11.3 | 0.00 | 0.00 | 0.00 | 15 | 1009.6 |
| 20260509171023 | 34 | 115 | 1.6 | 6.4 | 0.00 | 0.00 | 0.00 | 15 | 1009.6 |
| 20260509170524 | 33 | 103 | 0.0 | 4.8 | 0.00 | 0.00 | 0.00 | 15 | 1009.6 |
| 20260509170039 | 33 | 153 | 0.0 | 6.4 | 0.00 | 0.00 | 0.00 | 16 | 1009.7 |
| 20260509165523 | 33 | 5 | 0.0 | 9.7 | 0.00 | 0.00 | 0.00 | 17 | 1009.6 |
| 20260509165023 | 32 | 169 | 1.6 | 9.7 | 0.00 | 0.00 | 0.00 | 17 | 1009.6 |
| 20260509164535 | 32 | 147 | 1.6 | 9.7 | 0.00 | 0.00 | 0.00 | 17 | 1009.5 |
| 20260509164023 | 32 | 0 | 0.0 | 6.4 | 0.00 | 0.00 | 0.00 | 17 | 1009.6 |
| 20260509163524 | 32 | 208 | 1.6 | 6.4 | 0.00 | 0.00 | 0.00 | 17 | 1009.6 |
| 20260509163049 | 32 | 206 | 0.0 | 6.4 | 0.00 | 0.00 | 0.00 | 17 | 1009.6 |
| 20260509162524 | 32 | 96 | 0.0 | 6.4 | 0.00 | 0.00 | 0.00 | 18 | 1009.6 |
| 20260509162024 | 32 | 141 | 0.0 | 4.8 | 0.00 | 0.00 | 0.00 | 19 | 1009.6 |
| 20260509161542 | 31 | 0 | 1.6 | 4.8 | 0.00 | 0.00 | 0.00 | 18 | 1009.5 |
| 20260509161028 | 31 | 58 | 0.0 | 4.8 | 0.00 | 0.00 | 0.00 | 19 | 1009.6 |
| 20260509160524 | 31 | 202 | 0.0 | 4.8 | 0.00 | 0.00 | 0.00 | 19 | 1009.6 |
| 20260509160040 | 30 | 0 | 0.0 | 6.4 | 0.00 | 0.00 | 0.00 | 20 | 1009.6 |
| 20260509155524 | 30 | 0 | 1.6 | 6.4 | 0.00 | 0.00 | 0.00 | 20 | 1009.6 |
| 20260509155027 | 30 | 0 | 0.0 | 6.4 | 0.00 | 0.00 | 0.00 | 22 | 1009.6 |
| 20260509154540 | 29 | 78 | 1.6 | 6.4 | 0.00 | 0.00 | 0.00 | 21 | 1009.6 |
| 20260509154024 | 29 | 103 | 1.6 | 6.4 | 0.00 | 0.00 | 0.00 | 22 | 1009.6 |
| 20260509153524 | 28 | 76 | 1.6 | 6.4 | 0.00 | 0.00 | 0.00 | 23 | 1009.7 |
| 20260509153047 | 28 | 96 | 1.6 | 8.0 | 0.00 | 0.00 | 0.00 | 24 | 1009.7 |
| 20260509152524 | 28 | 0 | 1.6 | 8.0 | 0.00 | 0.00 | 0.00 | 25 | 1009.6 |
| 20260509152027 | 27 | 165 | 1.6 | 9.7 | 0.00 | 0.00 | 0.00 | 25 | 1009.7 |
| 20260509151536 | 27 | 137 | 1.6 | 9.7 | 0.00 | 0.00 | 0.00 | 25 | 1009.6 |
| 20260509151025 | 27 | 142 | 1.6 | 6.4 | 0.00 | 0.00 | 0.00 | 26 | 1009.6 |
| 20260509150528 | 26 | 159 | 1.6 | 9.7 | 0.00 | 0.00 | 0.00 | 27 | 1009.7 |
| 20260509150041 | 26 | 153 | 3.2 | 11.3 | 0.00 | 0.00 | 0.00 | 27 | 1009.6 |
| 20260509145525 | 26 | 153 | 3.2 | 11.3 | 0.00 | 0.00 | 0.00 | 27 | 1009.6 |
| 20260509145024 | 25 | 146 | 3.2 | 11.3 | 0.00 | 0.00 | 0.00 | 27 | 1009.5 |
| 20260509144539 | 25 | 128 | 3.2 | 11.3 | 0.00 | 0.00 | 0.00 | 27 | 1009.7 |
| 20260509144024 | 25 | 146 | 4.8 | 11.3 | 0.00 | 0.00 | 0.00 | 28 | 1009.6 |
| 20260509143525 | 25 | 184 | 3.2 | 11.3 | 0.00 | 0.00 | 0.00 | 29 | 1009.6 |
| 20260509143039 | 24 | 155 | 3.2 | 8.0 | 0.00 | 0.00 | 0.00 | 29 | 1009.4 |
| 20260509142523 | 24 | 171 | 1.6 | 8.0 | 0.00 | 0.00 | 0.00 | 29 | 1009.4 |
| 20260509142024 | 23 | 109 | 3.2 | 9.7 | 0.00 | 0.00 | 0.00 | 29 | 1009.3 |
| 20260509141539 | 23 | 102 | 1.6 | 9.7 | 0.00 | 0.00 | 0.00 | 29 | 1009.4 |
| 20260509141025 | 23 | 165 | 3.2 | 9.7 | 0.00 | 0.00 | 0.00 | 29 | 1009.4 |
| 20260509140524 | 23 | 155 | 1.6 | 6.4 | 0.00 | 0.00 | 0.00 | 30 | 1009.3 |
| 20260509140049 | 22 | 130 | 1.6 | 9.7 | 0.00 | 0.00 | 0.00 | 31 | 1009.3 |
| 20260509135527 | 22 | 109 | 3.2 | 9.7 | 0.00 | 0.00 | 0.00 | 31 | 1009.1 |
| 20260509135023 | 22 | 100 | 3.2 | 9.7 | 0.00 | 0.00 | 0.00 | 31 | 1009.1 |
| 20260509134549 | 21 | 98 | 3.2 | 9.7 | 0.00 | 0.00 | 0.00 | 32 | 1009.1 |
| 20260509134024 | 21 | 126 | 1.6 | 9.7 | 0.00 | 0.00 | 0.00 | 32 | 1009.1 |
| 20260509133524 | 21 | 117 | 3.2 | 9.7 | 0.00 | 0.00 | 0.00 | 32 | 1009.1 |
| 20260509133053 | 21 | 103 | 1.6 | 9.7 | 0.00 | 0.00 | 0.00 | 32 | 1009.0 |
| 20260509132525 | 20 | 129 | 3.2 | 11.3 | 0.00 | 0.00 | 0.00 | 33 | 1009.0 |
| 20260509132023 | 20 | 101 | 1.6 | 11.3 | 0.00 | 0.00 | 0.00 | 33 | 1008.8 |
| 20260509131540 | 20 | 96 | 4.8 | 11.3 | 0.00 | 0.00 | 0.00 | 33 | 1008.8 |
| 20260509131023 | 20 | 100 | 3.2 | 9.7 | 0.00 | 0.00 | 0.00 | 33 | 1008.8 |
| 20260509130523 | 20 | 99 | 3.2 | 9.7 | 0.00 | 0.00 | 0.00 | 33 | 1008.7 |
| 20260509130039 | 20 | 102 | 3.2 | 9.7 | 0.00 | 0.00 | 0.00 | 33 | 1008.5 |
| 20260509125525 | 20 | 97 | 3.2 | 6.4 | 0.00 | 0.00 | 0.00 | 33 | 1008.6 |
| 20260509125024 | 20 | 143 | 1.6 | 9.7 | 0.00 | 0.00 | 0.00 | 33 | 1008.5 |
| 20260509124539 | 19 | 109 | 3.2 | 9.7 | 0.00 | 0.00 | 0.00 | 33 | 1008.3 |
| 20260509124025 | 19 | 102 | 1.6 | 6.4 | 0.00 | 0.00 | 0.00 | 33 | 1008.1 |
| 20260509123524 | 20 | 105 | 3.2 | 6.4 | 0.00 | 0.00 | 0.00 | 33 | 1008.2 |
| 20260509123040 | 20 | 108 | 1.6 | 4.8 | 0.00 | 0.00 | 0.00 | 32 | 1008.1 |
| 20260509122524 | 20 | 110 | 1.6 | 4.8 | 0.00 | 0.00 | 0.00 | 32 | 1008.1 |
| 20260509122024 | 20 | 102 | 1.6 | 4.8 | 0.00 | 0.00 | 0.00 | 32 | 1008.0 |
| 20260509121541 | 20 | 102 | 1.6 | 4.8 | 0.00 | 0.00 | 0.00 | 31 | 1007.9 |
| 20260509121025 | 20 | 0 | 1.6 | 6.4 | 0.00 | 0.00 | 0.00 | 31 | 1007.9 |
| 20260509120524 | 20 | 103 | 1.6 | 6.4 | 0.00 | 0.00 | 0.00 | 32 | 1007.8 |
| 20260509120040 | 20 | 111 | 3.2 | 6.4 | 0.00 | 0.00 | 0.00 | 32 | 1007.8 |
| 20260509115523 | 20 | 109 | 3.2 | 6.4 | 0.00 | 0.00 | 0.00 | 32 | 1007.7 |
| 20260509115024 | 20 | 109 | 1.6 | 4.8 | 0.00 | 0.00 | 0.00 | 32 | 1007.8 |
| 20260509114547 | 20 | 109 | 1.6 | 4.8 | 0.00 | 0.00 | 0.00 | 32 | 1007.6 |
| 20260509114027 | 20 | 109 | 1.6 | 4.8 | 0.00 | 0.00 | 0.00 | 31 | 1007.7 |
| 20260509113523 | 20 | 109 | 1.6 | 6.4 | 0.00 | 0.00 | 0.00 | 32 | 1007.6 |
| 20260509113046 | 20 | 109 | 1.6 | 6.4 | 0.00 | 0.00 | 0.00 | 32 | 1007.7 |
| 20260509112524 | 20 | 109 | 3.2 | 6.4 | 0.00 | 0.00 | 0.00 | 31 | 1007.6 |
| 20260509112024 | 20 | 139 | 0.0 | 4.8 | 0.00 | 0.00 | 0.00 | 32 | 1007.7 |
| 20260509111542 | 20 | 139 | 1.6 | 4.8 | 0.00 | 0.00 | 0.00 | 31 | 1007.6 |
| 20260509111025 | 20 | 139 | 1.6 | 4.8 | 0.00 | 0.00 | 0.00 | 31 | 1007.5 |
| 20260509110523 | 21 | 139 | 0.0 | 3.2 | 0.00 | 0.00 | 0.00 | 31 | 1007.5 |
| 20260509110040 | 21 | 139 | 0.0 | 9.7 | 0.00 | 0.00 | 0.00 | 31 | 1007.4 |
| 20260509105529 | 21 | 139 | 0.0 | 9.7 | 0.00 | 0.00 | 0.00 | 31 | 1007.5 |
| 20260509105024 | 21 | 139 | 4.8 | 9.7 | 0.00 | 0.00 | 0.00 | 30 | 1007.4 |
| 20260509104540 | 21 | 105 | 1.6 | 9.7 | 0.00 | 0.00 | 0.00 | 31 | 1007.4 |
| 20260509104023 | 21 | 143 | 1.6 | 9.7 | 0.00 | 0.00 | 0.00 | 30 | 1007.4 |
| 20260509103524 | 21 | 157 | 4.8 | 9.7 | 0.00 | 0.00 | 0.00 | 30 | 1007.4 |
| 20260509103039 | 21 | 154 | 3.2 | 6.4 | 0.00 | 0.00 | 0.00 | 29 | 1007.4 |
| 20260509102525 | 21 | 146 | 1.6 | 8.0 | 0.00 | 0.00 | 0.00 | 29 | 1007.5 |
| 20260509102025 | 21 | 0 | 3.2 | 8.0 | 0.00 | 0.00 | 0.00 | 29 | 1007.4 |
| 20260509101540 | 21 | 145 | 3.2 | 6.4 | 0.00 | 0.00 | 0.00 | 29 | 1007.5 |
| 20260509101024 | 21 | 145 | 0.0 | 8.0 | 0.00 | 0.00 | 0.00 | 29 | 1007.6 |
| 20260509100524 | 21 | 0 | 3.2 | 8.0 | 0.00 | 0.00 | 0.00 | 29 | 1007.4 |
| 20260509100048 | 21 | 144 | 1.6 | 6.4 | 0.00 | 0.00 | 0.00 | 30 | 1007.5 |
| 20260509095524 | 21 | 0 | 1.6 | 6.4 | 0.00 | 0.00 | 0.00 | 30 | 1007.6 |
| 20260509095024 | 22 | 145 | 3.2 | 4.8 | 0.00 | 0.00 | 0.00 | 31 | 1007.5 |
| 20260509094541 | 22 | 145 | 1.6 | 6.4 | 0.00 | 0.00 | 0.00 | 31 | 1007.6 |
| 20260509094024 | 22 | 145 | 3.2 | 6.4 | 0.00 | 0.00 | 0.00 | 31 | 1007.5 |
| 20260509093525 | 22 | 145 | 3.2 | 6.4 | 0.00 | 0.00 | 0.00 | 31 | 1007.6 |
| 20260509093042 | 22 | 148 | 0.0 | 4.8 | 0.00 | 0.00 | 0.00 | 31 | 1007.4 |
| 20260509092523 | 22 | 148 | 1.6 | 4.8 | 0.00 | 0.00 | 0.00 | 32 | 1007.5 |
| 20260509092024 | 22 | 0 | 0.0 | 3.2 | 0.00 | 0.00 | 0.00 | 31 | 1007.5 |
| 20260509091540 | 22 | 148 | 1.6 | 3.2 | 0.00 | 0.00 | 0.00 | 32 | 1007.5 |
| 20260509091024 | 22 | 148 | 1.6 | 4.8 | 0.00 | 0.00 | 0.00 | 31 | 1007.5 |
| 20260509090525 | 22 | 0 | 1.6 | 4.8 | 0.00 | 0.00 | 0.00 | 30 | 1007.4 |
| 20260509090039 | 22 | 148 | 1.6 | 8.0 | 0.00 | 0.00 | 0.00 | 30 | 1007.5 |
| 20260509085524 | 23 | 0 | 3.2 | 9.7 | 0.00 | 0.00 | 0.00 | 30 | 1007.4 |
| 20260509085024 | 23 | 148 | 4.8 | 9.7 | 0.00 | 0.00 | 0.00 | 30 | 1007.4 |
| 20260509084548 | 23 | 167 | 4.8 | 9.7 | 0.00 | 0.00 | 0.00 | 30 | 1007.4 |
| 20260509084023 | 23 | 133 | 3.2 | 4.8 | 0.00 | 0.00 | 0.00 | 29 | 1007.4 |
| 20260509083527 | 23 | 112 | 1.6 | 4.8 | 0.00 | 0.00 | 0.00 | 28 | 1007.4 |
| 20260509083039 | 23 | 112 | 1.6 | 4.8 | 0.00 | 0.00 | 0.00 | 28 | 1007.3 |
| 20260509082524 | 23 | 112 | 0.0 | 3.2 | 0.00 | 0.00 | 0.00 | 28 | 1007.4 |
| 20260509082025 | 23 | 112 | 0.0 | 3.2 | 0.00 | 0.00 | 0.00 | 28 | 1007.4 |
| 20260509081540 | 23 | 0 | 0.0 | 3.2 | 0.00 | 0.00 | 0.00 | 28 | 1007.4 |
| 20260509081023 | 23 | 0 | 0.0 | 4.8 | 0.00 | 0.00 | 0.00 | 28 | 1007.4 |
| 20260509080524 | 24 | 0 | 1.6 | 4.8 | 0.00 | 0.00 | 0.00 | 28 | 1007.4 |
| 20260509080055 | 24 | 112 | 1.6 | 4.8 | 0.00 | 0.00 | 0.00 | 27 | 1007.3 |
| 20260509075524 | 24 | 112 | 0.0 | 4.8 | 0.00 | 0.00 | 0.00 | 27 | 1007.3 |
| 20260509075025 | 24 | 112 | 1.6 | 4.8 | 0.00 | 0.00 | 0.00 | 27 | 1007.4 |
| 20260509074539 | 24 | 0 | 1.6 | 4.8 | 0.00 | 0.00 | 0.00 | 27 | 1007.3 |
| 20260509074024 | 25 | 253 | 1.6 | 4.8 | 0.00 | 0.00 | 0.00 | 27 | 1007.2 |
| 20260509073524 | 25 | 254 | 1.6 | 4.8 | 0.00 | 0.00 | 0.00 | 28 | 1007.2 |
| 20260509073133 | 25 | 0 | 0.0 | 1.6 | 0.00 | 0.00 | 0.00 | 27 | 1007.2 |
| 20260509072524 | 25 | 0 | 0.0 | 1.6 | 0.00 | 0.00 | 0.00 | 26 | 1007.2 |
| 20260509072023 | 26 | 0 | 0.0 | 1.6 | 0.00 | 0.00 | 0.00 | 25 | 1007.3 |
| 20260509071546 | 26 | 0 | 0.0 | 0.0 | 0.00 | 0.00 | 0.00 | 23 | 1007.2 |
| 20260509071024 | 26 | 0 | 0.0 | 0.0 | 0.00 | 0.00 | 0.00 | 23 | 1007.1 |
| 20260509070524 | 26 | 0 | 0.0 | 1.6 | 0.00 | 0.00 | 0.00 | 23 | 1007.2 |
| 20260509070041 | 26 | 0 | 0.0 | 3.2 | 0.00 | 0.00 | 0.00 | 23 | 1007.2 |
| 20260509065527 | 26 | 0 | 0.0 | 3.2 | 0.00 | 0.00 | 0.00 | 22 | 1007.1 |
| 20260509065025 | 26 | 248 | 0.0 | 3.2 | 0.00 | 0.00 | 0.00 | 23 | 1007.2 |
| 20260509064544 | 26 | 248 | 0.0 | 3.2 | 0.00 | 0.00 | 0.00 | 22 | 1007.2 |
| 20260509064025 | 26 | 0 | 1.6 | 3.2 | 0.00 | 0.00 | 0.00 | 23 | 1007.2 |
| 20260509063528 | 27 | 0 | 0.0 | 0.0 | 0.00 | 0.00 | 0.00 | 23 | 1007.1 |
| 20260509063039 | 27 | 0 | 0.0 | 0.0 | 0.00 | 0.00 | 0.00 | 22 | 1007.1 |
| 20260509062524 | 27 | 0 | 0.0 | 1.6 | 0.00 | 0.00 | 0.00 | 22 | 1007.1 |
| 20260509062026 | 27 | 0 | 0.0 | 3.2 | 0.00 | 0.00 | 0.00 | 22 | 1007.1 |
| 20260509061551 | 27 | 0 | 0.0 | 3.2 | 0.00 | 0.00 | 0.00 | 22 | 1007.0 |
| 20260509061024 | 27 | 0 | 0.0 | 3.2 | 0.00 | 0.00 | 0.00 | 21 | 1007.0 |
| 20260509060524 | 27 | 252 | 0.0 | 6.4 | 0.00 | 0.00 | 0.00 | 21 | 1007.0 |
| 20260509060041 | 27 | 0 | 1.6 | 6.4 | 0.00 | 0.00 | 0.00 | 21 | 1007.0 |
| 20260509055524 | 27 | 214 | 1.6 | 8.0 | 0.00 | 0.00 | 0.00 | 21 | 1007.0 |
| 20260509055027 | 27 | 219 | 1.6 | 8.0 | 0.00 | 0.00 | 0.00 | 21 | 1006.9 |
| 20260509054543 | 28 | 216 | 1.6 | 8.0 | 0.00 | 0.00 | 0.00 | 21 | 1007.0 |
| 20260509054026 | 28 | 253 | 1.6 | 6.4 | 0.00 | 0.00 | 0.00 | 21 | 1007.0 |
| 20260509053526 | 28 | 241 | 3.2 | 6.4 | 0.00 | 0.00 | 0.00 | 22 | 1006.9 |
| 20260509053040 | 28 | 211 | 3.2 | 6.4 | 0.00 | 0.00 | 0.00 | 22 | 1007.0 |
| 20260509052524 | 28 | 215 | 1.6 | 6.4 | 0.00 | 0.00 | 0.00 | 22 | 1007.0 |
| 20260509052024 | 28 | 211 | 1.6 | 8.0 | 0.00 | 0.00 | 0.00 | 21 | 1006.9 |
| 20260509051540 | 28 | 215 | 3.2 | 8.0 | 0.00 | 0.00 | 0.00 | 21 | 1007.0 |
| 20260509051024 | 28 | 232 | 1.6 | 6.4 | 0.00 | 0.00 | 0.00 | 21 | 1006.9 |
| 20260509050524 | 28 | 217 | 1.6 | 6.4 | 0.00 | 0.00 | 0.00 | 21 | 1007.0 |
| 20260509050046 | 28 | 217 | 1.6 | 8.0 | 0.00 | 0.00 | 0.00 | 21 | 1006.9 |
| 20260509045526 | 28 | 217 | 3.2 | 8.0 | 0.00 | 0.00 | 0.00 | 21 | 1006.9 |
| 20260509045026 | 29 | 236 | 3.2 | 8.0 | 0.00 | 0.00 | 0.00 | 20 | 1006.9 |
| 20260509044542 | 29 | 229 | 1.6 | 6.4 | 0.00 | 0.00 | 0.00 | 20 | 1006.9 |
| 20260509044026 | 29 | 223 | 1.6 | 6.4 | 0.00 | 0.00 | 0.00 | 20 | 1006.9 |
| 20260509043526 | 30 | 257 | 3.2 | 8.0 | 0.00 | 0.00 | 0.00 | 19 | 1006.8 |
| 20260509043046 | 30 | 216 | 1.6 | 9.7 | 0.00 | 0.00 | 0.00 | 19 | 1006.8 |
| 20260509042524 | 30 | 246 | 1.6 | 9.7 | 0.00 | 0.00 | 0.00 | 19 | 1006.8 |
| 20260509042024 | 30 | 230 | 1.6 | 9.7 | 0.00 | 0.00 | 0.00 | 18 | 1006.8 |
| 20260509041539 | 30 | 237 | 3.2 | 9.7 | 0.00 | 0.00 | 0.00 | 18 | 1006.6 |
| 20260509041023 | 30 | 227 | 3.2 | 9.7 | 0.00 | 0.00 | 0.00 | 18 | 1006.6 |
| 20260509040524 | 30 | 214 | 3.2 | 11.3 | 0.00 | 0.00 | 0.00 | 17 | 1006.5 |
| 20260509040040 | 31 | 254 | 3.2 | 11.3 | 0.00 | 0.00 | 0.00 | 17 | 1006.4 |
| 20260509035524 | 31 | 238 | 1.6 | 8.0 | 0.00 | 0.00 | 0.00 | 17 | 1006.4 |
| 20260509035023 | 31 | 274 | 1.6 | 8.0 | 0.00 | 0.00 | 0.00 | 17 | 1006.4 |
| 20260509034545 | 31 | 215 | 3.2 | 8.0 | 0.00 | 0.00 | 0.00 | 17 | 1006.2 |
| 20260509034024 | 31 | 222 | 3.2 | 8.0 | 0.00 | 0.00 | 0.00 | 18 | 1006.1 |
| 20260509033524 | 31 | 211 | 3.2 | 6.4 | 0.00 | 0.00 | 0.00 | 18 | 1006.1 |
| 20260509033041 | 31 | 192 | 1.6 | 4.8 | 0.00 | 0.00 | 0.00 | 18 | 1006.0 |
| 20260509032525 | 31 | 191 | 1.6 | 6.4 | 0.00 | 0.00 | 0.00 | 18 | 1005.8 |
| 20260509032024 | 31 | 200 | 1.6 | 6.4 | 0.00 | 0.00 | 0.00 | 17 | 1006.0 |
| 20260509031541 | 32 | 203 | 1.6 | 4.8 | 0.00 | 0.00 | 0.00 | 17 | 1006.0 |
| 20260509031024 | 32 | 0 | 1.6 | 4.8 | 0.00 | 0.00 | 0.00 | 16 | 1006.0 |
| 20260509030528 | 32 | 227 | 1.6 | 4.8 | 0.00 | 0.00 | 0.00 | 16 | 1006.0 |
| 20260509030041 | 32 | 0 | 0.0 | 4.8 | 0.00 | 0.00 | 0.00 | 16 | 1005.9 |
| 20260509025523 | 32 | 0 | 1.6 | 4.8 | 0.00 | 0.00 | 0.00 | 16 | 1005.9 |
| 20260509025025 | 33 | 232 | 1.6 | 4.8 | 0.00 | 0.00 | 0.00 | 15 | 1005.9 |
| 20260509024545 | 33 | 224 | 1.6 | 4.8 | 0.00 | 0.00 | 0.00 | 15 | 1005.8 |
| 20260509024027 | 33 | 244 | 1.6 | 4.8 | 0.00 | 0.00 | 0.00 | 15 | 1005.8 |
| 20260509023525 | 33 | 251 | 1.6 | 6.4 | 0.00 | 0.00 | 0.00 | 14 | 1005.7 |
| 20260509023046 | 33 | 253 | 1.6 | 6.4 | 0.00 | 0.00 | 0.00 | 14 | 1005.7 |
| 20260509022524 | 34 | 247 | 1.6 | 9.7 | 0.00 | 0.00 | 0.00 | 14 | 1005.6 |
| 20260509022024 | 34 | 265 | 1.6 | 9.7 | 0.00 | 0.00 | 0.00 | 14 | 1005.6 |
| 20260509021542 | 35 | 0 | 1.6 | 11.3 | 0.00 | 0.00 | 0.00 | 13 | 1005.5 |
| 20260509021024 | 35 | 284 | 1.6 | 11.3 | 0.00 | 0.00 | 0.00 | 13 | 1005.5 |
| 20260509020526 | 35 | 248 | 1.6 | 11.3 | 0.00 | 0.00 | 0.00 | 13 | 1005.6 |
| 20260509020039 | 35 | 243 | 3.2 | 11.3 | 0.00 | 0.00 | 0.00 | 13 | 1005.6 |
| 20260509015526 | 35 | 258 | 3.2 | 14.5 | 0.00 | 0.00 | 0.00 | 13 | 1005.5 |
| 20260509015025 | 35 | 280 | 4.8 | 14.5 | 0.00 | 0.00 | 0.00 | 12 | 1005.5 |
| 20260509014539 | 36 | 305 | 3.2 | 14.5 | 0.00 | 0.00 | 0.00 | 13 | 1005.5 |
| 20260509014023 | 36 | 277 | 3.2 | 14.5 | 0.00 | 0.00 | 0.00 | 12 | 1005.4 |
| 20260509013528 | 36 | 284 | 3.2 | 14.5 | 0.00 | 0.00 | 0.00 | 12 | 1005.5 |
| 20260509013046 | 36 | 292 | 3.2 | 14.5 | 0.00 | 0.00 | 0.00 | 12 | 1005.4 |
| 20260509012524 | 36 | 311 | 4.8 | 17.7 | 0.00 | 0.00 | 0.00 | 12 | 1005.4 |
| 20260509012024 | 36 | 304 | 8.0 | 17.7 | 0.00 | 0.00 | 0.00 | 12 | 1005.4 |
| 20260509011543 | 36 | 296 | 4.8 | 17.7 | 0.00 | 0.00 | 0.00 | 12 | 1005.5 |